TimeCDT,TemperatureF,Dew PointF,Humidity,Sea Level PressureIn,VisibilityMPH,Wind Direction,Wind SpeedMPH,Gust SpeedMPH,PrecipitationIn,Events,Conditions,WindDirDegrees,DateUTC
12:53 AM,57.0,54.0,89,29.74,10.0,Calm,Calm,-,N/A,,Clear,0,2013-04-08 05:53:00
1:53 AM,59.0,55.9,90,29.73,10.0,Calm,Calm,-,N/A,,Clear,0,2013-04-08 06:53:00
2:53 AM,54.0,52.0,93,29.73,10.0,Calm,Calm,-,N/A,,Clear,0,2013-04-08 07:53:00
3:53 AM,53.1,51.1,93,29.72,9.0,Calm,Calm,-,N/A,,Clear,0,2013-04-08 08:53:00
4:53 AM,54.0,52.0,93,29.74,9.0,Calm,Calm,-,N/A,,Clear,0,2013-04-08 09:53:00
5:53 AM,53.1,52.0,96,29.75,8.0,Calm,Calm,-,N/A,,Clear,0,2013-04-08 10:53:00
6:53 AM,55.0,53.1,93,29.76,10.0,Calm,Calm,-,N/A,,Clear,0,2013-04-08 11:53:00
7:53 AM,59.0,57.0,93,29.77,10.0,Calm,Calm,-,N/A,,Clear,0,2013-04-08 12:53:00
8:53 AM,64.9,59.0,81,29.78,10.0,SSE,5.8,-,N/A,,Clear,150,2013-04-08 13:53:00
9:53 AM,72.0,60.1,66,29.79,10.0,SE,5.8,-,N/A,,Clear,140,2013-04-08 14:53:00
10:53 AM,75.9,55.9,50,29.80,10.0,SE,8.1,-,N/A,,Clear,140,2013-04-08 15:53:00
11:53 AM,75.9,55.9,50,29.80,10.0,South,5.8,-,N/A,,Scattered Clouds,170,2013-04-08 16:53:00
12:53 PM,79.0,57.0,47,29.78,10.0,SSE,10.4,-,N/A,,Mostly Cloudy,150,2013-04-08 17:53:00
1:53 PM,80.1,57.0,45,29.76,10.0,South,9.2,-,N/A,,Mostly Cloudy,170,2013-04-08 18:53:00
2:53 PM,81.0,57.0,44,29.73,10.0,SE,8.1,-,N/A,,Mostly Cloudy,140,2013-04-08 19:53:00
3:53 PM,82.0,55.9,41,29.72,10.0,SSW,9.2,-,N/A,,Mostly Cloudy,200,2013-04-08 20:53:00
4:53 PM,82.0,55.9,41,29.71,10.0,SSE,9.2,17.3,N/A,,Mostly Cloudy,160,2013-04-08 21:53:00
5:53 PM,80.1,57.9,47,29.71,10.0,South,5.8,-,N/A,,Clear,180,2013-04-08 22:53:00
6:53 PM,75.9,59.0,56,29.72,10.0,Calm,Calm,-,N/A,,Clear,0,2013-04-08 23:53:00
7:53 PM,73.9,59.0,59,29.74,10.0,South,3.5,-,N/A,,Mostly Cloudy,190,2013-04-09 00:53:00
8:53 PM,71.1,57.9,63,29.76,10.0,SSW,3.5,-,N/A,,Scattered Clouds,200,2013-04-09 01:53:00
9:53 PM,69.1,59.0,70,29.78,10.0,Calm,Calm,-,N/A,,Clear,0,2013-04-09 02:53:00
10:53 PM,66.9,59.0,76,29.78,10.0,Calm,Calm,-,N/A,,Clear,0,2013-04-09 03:53:00
11:53 PM,64.9,59.0,81,29.76,10.0,Calm,Calm,-,N/A,,Clear,0,2013-04-09 04:53:00